| time (UTC) | temp C | wind direction | speed KPH | gust KPH | rain 1hr cm | rain 24hr cm | rain mn cm | humidity % | barometer mb |
| 20260906224551 | 35 | 50 | 9.7 | 19.3 | 0.00 | 0.00 | 0.00 | 40 | 1013.4 |
| 20260906223106 | 35 | 48 | 12.9 | 19.3 | 0.00 | 0.00 | 0.00 | 41 | 1013.4 |
| 20260906221606 | 33 | 340 | 12.9 | 19.3 | 0.00 | 0.00 | 0.00 | 43 | 1013.6 |
| 20260906220054 | 34 | 27 | 14.5 | 29.0 | 0.00 | 0.00 | 0.00 | 40 | 1013.6 |
| 20260906214553 | 36 | 18 | 12.9 | 20.9 | 0.00 | 0.00 | 0.00 | 38 | 1013.6 |
| 20260906213059 | 35 | 69 | 6.4 | 22.5 | 0.00 | 0.00 | 0.00 | 38 | 1013.6 |
| 20260906211603 | 36 | 39 | 9.7 | 19.3 | 0.00 | 0.00 | 0.00 | 38 | 1013.9 |
| 20260906210112 | 35 | 23 | 8.0 | 27.4 | 0.00 | 0.00 | 0.00 | 39 | 1014.1 |
| 20260906204556 | 34 | 19 | 9.7 | 17.7 | 0.00 | 0.00 | 0.00 | 41 | 1014.4 |
| 20260906203054 | 34 | 181 | 1.6 | 8.0 | 0.00 | 0.00 | 0.00 | 42 | 1014.5 |
| 20260906201633 | 35 | 181 | 9.7 | 16.1 | 0.00 | 0.00 | 0.00 | 39 | 1014.4 |
| 20260906200058 | 36 | 0 | 1.6 | 14.5 | 0.00 | 0.00 | 0.00 | 39 | 1014.7 |
| 20260906194605 | 35 | 59 | 4.8 | 20.9 | 0.00 | 0.00 | 0.00 | 41 | 1014.9 |
| 20260906193056 | 35 | 57 | 12.9 | 22.5 | 0.00 | 0.00 | 0.00 | 41 | 1015.1 |
| 20260906191607 | 34 | 105 | 9.7 | 20.9 | 0.00 | 0.00 | 0.00 | 43 | 1015.2 |
| 20260906190052 | 35 | 181 | 4.8 | 17.7 | 0.00 | 0.00 | 0.00 | 42 | 1015.4 |
| 20260906184601 | 34 | 117 | 6.4 | 20.9 | 0.00 | 0.00 | 0.00 | 43 | 1015.6 |
| 20260906183100 | 33 | 70 | 6.4 | 19.3 | 0.00 | 0.00 | 0.00 | 46 | 1016.0 |
| 20260906181624 | 34 | 358 | 11.3 | 20.9 | 0.00 | 0.00 | 0.00 | 43 | 1016.2 |
| 20260906180106 | 34 | 46 | 11.3 | 22.5 | 0.00 | 0.00 | 0.00 | 43 | 1016.5 |
| 20260906174556 | 33 | 181 | 6.4 | 14.5 | 0.00 | 0.00 | 0.00 | 43 | 1016.8 |
| 20260906173106 | 33 | 181 | 6.4 | 16.1 | 0.00 | 0.00 | 0.00 | 44 | 1017.0 |
| 20260906171554 | 33 | 181 | 3.2 | 17.7 | 0.00 | 0.00 | 0.00 | 45 | 1017.0 |
| 20260906170058 | 33 | 243 | 1.6 | 11.3 | 0.00 | 0.00 | 0.00 | 46 | 1017.2 |
| 20260906164557 | 32 | 182 | 3.2 | 8.0 | 0.00 | 0.00 | 0.00 | 50 | 1017.4 |
| 20260906163102 | 32 | 0 | 0.0 | 3.2 | 0.00 | 0.00 | 0.00 | 47 | 1017.3 |
| 20260906161604 | 32 | 181 | 0.0 | 3.2 | 0.00 | 0.00 | 0.00 | 48 | 1017.4 |
| 20260906160100 | 31 | 181 | 3.2 | 8.0 | 0.00 | 0.00 | 0.00 | 51 | 1017.5 |
| 20260906154559 | 31 | 0 | 0.0 | 6.4 | 0.00 | 0.00 | 0.00 | 53 | 1017.4 |
| 20260906153057 | 31 | 181 | 3.2 | 6.4 | 0.00 | 0.00 | 0.00 | 54 | 1017.4 |
| 20260906151552 | 31 | 181 | 0.0 | 6.4 | 0.00 | 0.00 | 0.00 | 57 | 1017.3 |
| 20260906150100 | 30 | 181 | 0.0 | 3.2 | 0.00 | 0.00 | 0.00 | 59 | 1017.1 |
| 20260906144558 | 30 | 0 | 0.0 | 4.8 | 0.00 | 0.00 | 0.00 | 60 | 1017.2 |
| 20260906143056 | 28 | 96 | 0.0 | 3.2 | 0.00 | 0.00 | 0.00 | 64 | 1017.1 |
| 20260906141559 | 27 | 94 | 1.6 | 6.4 | 0.00 | 0.00 | 0.00 | 65 | 1017.2 |
| 20260906134605 | 26 | 105 | 0.0 | 3.2 | 0.00 | 0.00 | 0.00 | 66 | 1017.0 |
| 20260906133103 | 26 | 0 | 0.0 | 0.0 | 0.00 | 0.00 | 0.00 | 64 | 1016.9 |
| 20260906131554 | 25 | 0 | 0.0 | 0.0 | 0.00 | 0.00 | 0.00 | 65 | 1016.9 |
| 20260906130107 | 24 | 0 | 0.0 | 0.0 | 0.00 | 0.00 | 0.00 | 69 | 1016.7 |
| 20260906124555 | 22 | 0 | 0.0 | 0.0 | 0.00 | 0.00 | 0.00 | 71 | 1016.6 |
| 20260906123058 | 22 | 0 | 0.0 | 0.0 | 0.00 | 0.00 | 0.00 | 74 | 1016.1 |
| 20260906121607 | 22 | 0 | 0.0 | 0.0 | 0.00 | 0.00 | 0.00 | 73 | 1016.0 |
| 20260906120055 | 22 | 0 | 0.0 | 0.0 | 0.00 | 0.00 | 0.00 | 72 | 1015.9 |
| 20260906114612 | 22 | 0 | 0.0 | 0.0 | 0.00 | 0.00 | 0.00 | 70 | 1015.8 |
| 20260906113107 | 23 | 0 | 0.0 | 0.0 | 0.00 | 0.00 | 0.00 | 69 | 1015.9 |
| 20260906111552 | 23 | 0 | 0.0 | 0.0 | 0.00 | 0.00 | 0.00 | 69 | 1015.7 |
| 20260906110054 | 23 | 0 | 0.0 | 0.0 | 0.00 | 0.00 | 0.00 | 69 | 1015.5 |
| 20260906104556 | 23 | 0 | 0.0 | 0.0 | 0.00 | 0.00 | 0.00 | 69 | 1015.5 |
| 20260906103057 | 23 | 0 | 0.0 | 0.0 | 0.00 | 0.00 | 0.00 | 67 | 1015.5 |
| 20260906101605 | 24 | 0 | 0.0 | 0.0 | 0.00 | 0.00 | 0.00 | 67 | 1015.4 |
| 20260906100101 | 24 | 0 | 0.0 | 0.0 | 0.00 | 0.00 | 0.00 | 66 | 1015.1 |
| 20260906094556 | 24 | 0 | 0.0 | 0.0 | 0.00 | 0.00 | 0.00 | 66 | 1015.3 |
| 20260906093058 | 24 | 0 | 0.0 | 0.0 | 0.00 | 0.00 | 0.00 | 65 | 1015.2 |
| 20260906091609 | 25 | 0 | 0.0 | 0.0 | 0.00 | 0.00 | 0.00 | 63 | 1015.1 |
| 20260906090111 | 26 | 0 | 0.0 | 4.8 | 0.00 | 0.00 | 0.00 | 62 | 1015.1 |
| 20260906084600 | 26 | 46 | 1.6 | 9.7 | 0.00 | 0.00 | 0.00 | 61 | 1015.1 |
| 20260906083057 | 26 | 27 | 4.8 | 8.0 | 0.00 | 0.00 | 0.00 | 61 | 1015.1 |
| 20260906081600 | 26 | 37 | 3.2 | 8.0 | 0.00 | 0.00 | 0.00 | 60 | 1015.0 |
| 20260906080100 | 26 | 43 | 4.8 | 9.7 | 0.00 | 0.00 | 0.00 | 59 | 1015.1 |
| 20260906074554 | 27 | 14 | 4.8 | 12.9 | 0.00 | 0.00 | 0.00 | 57 | 1015.3 |
| 20260906073057 | 27 | 22 | 4.8 | 11.3 | 0.00 | 0.00 | 0.00 | 57 | 1015.4 |
| 20260906071606 | 27 | 27 | 6.4 | 11.3 | 0.00 | 0.00 | 0.00 | 55 | 1015.5 |
| 20260906070056 | 27 | 34 | 6.4 | 12.9 | 0.00 | 0.00 | 0.00 | 55 | 1015.5 |
| 20260906064553 | 27 | 33 | 3.2 | 9.7 | 0.00 | 0.00 | 0.00 | 55 | 1015.7 |
| 20260906063059 | 27 | 30 | 1.6 | 4.8 | 0.00 | 0.00 | 0.00 | 53 | 1015.8 |
| 20260906061600 | 27 | 14 | 3.2 | 6.4 | 0.00 | 0.00 | 0.00 | 53 | 1015.9 |
| 20260906060138 | 27 | 39 | 4.8 | 9.7 | 0.00 | 0.00 | 0.00 | 53 | 1016.0 |
| 20260906054554 | 28 | 60 | 3.2 | 11.3 | 0.00 | 0.00 | 0.00 | 51 | 1016.0 |
| 20260906053057 | 28 | 41 | 6.4 | 16.1 | 0.00 | 0.00 | 0.00 | 51 | 1015.8 |
| 20260906051554 | 28 | 28 | 6.4 | 17.7 | 0.00 | 0.00 | 0.00 | 50 | 1015.7 |
| 20260906050110 | 29 | 25 | 4.8 | 12.9 | 0.00 | 0.00 | 0.00 | 49 | 1015.7 |
| 20260906044557 | 29 | 4 | 9.7 | 16.1 | 0.00 | 0.00 | 0.00 | 48 | 1015.7 |
| 20260906043102 | 30 | 6 | 8.0 | 14.5 | 0.00 | 0.00 | 0.00 | 47 | 1015.7 |
| 20260906041557 | 30 | 359 | 9.7 | 20.9 | 0.00 | 0.00 | 0.00 | 47 | 1015.7 |
| 20260906040109 | 30 | 16 | 11.3 | 19.3 | 0.00 | 0.00 | 0.00 | 46 | 1015.6 |
| 20260906034558 | 31 | 22 | 9.7 | 22.5 | 0.00 | 0.00 | 0.00 | 44 | 1015.4 |
| 20260906033058 | 31 | 350 | 8.0 | 20.9 | 0.00 | 0.00 | 0.00 | 44 | 1015.3 |
| 20260906031616 | 31 | 18 | 9.7 | 20.9 | 0.00 | 0.00 | 0.00 | 44 | 1015.0 |
| 20260906030054 | 31 | 6 | 6.4 | 11.3 | 0.00 | 0.00 | 0.00 | 45 | 1014.9 |
| 20260906024557 | 31 | 360 | 6.4 | 11.3 | 0.00 | 0.00 | 0.00 | 44 | 1014.5 |
| 20260906023110 | 31 | 354 | 4.8 | 9.7 | 0.00 | 0.00 | 0.00 | 43 | 1014.4 |
| 20260906021602 | 32 | 319 | 6.4 | 17.7 | 0.00 | 0.00 | 0.00 | 43 | 1014.2 |
| 20260906014559 | 32 | 356 | 9.7 | 17.7 | 0.00 | 0.00 | 0.00 | 40 | 1013.9 |
| 20260906013057 | 32 | 347 | 8.0 | 24.1 | 0.00 | 0.00 | 0.00 | 40 | 1013.8 |
| 20260906011603 | 33 | 334 | 8.0 | 20.9 | 0.00 | 0.00 | 0.00 | 39 | 1013.5 |
| 20260906010109 | 33 | 8 | 8.0 | 22.5 | 0.00 | 0.00 | 0.00 | 38 | 1013.4 |
| 20260906004603 | 33 | 23 | 11.3 | 19.3 | 0.00 | 0.00 | 0.00 | 39 | 1013.2 |
| 20260906003101 | 34 | 356 | 8.0 | 20.9 | 0.00 | 0.00 | 0.00 | 39 | 1013.1 |
| 20260906001554 | 35 | 8 | 14.5 | 19.3 | 0.00 | 0.00 | 0.00 | 38 | 1013.0 |
| 20260906000109 | 35 | 342 | 12.9 | 20.9 | 0.00 | 0.00 | 0.00 | 38 | 1013.0 |
| 20260905234559 | 35 | 38 | 14.5 | 27.4 | 0.00 | 0.00 | 0.00 | 38 | 1012.9 |
| 20260905233102 | 36 | 30 | 6.4 | 12.9 | 0.00 | 0.00 | 0.00 | 37 | 1012.7 |
| 20260905231603 | 36 | 13 | 8.0 | 14.5 | 0.00 | 0.00 | 0.00 | 37 | 1012.5 |